FW2602 Weather Reports


Display with metric or nautical units.
time (UTC)temp
F
wind
direction
speed
MPH
gust
MPH
rain 1hr
in
rain 24hr
in
rain mn
in
humidity
%
barometer
mb
20260902065034 62 328 0.0 2.0 0.00 0.51 0.00 98 1017.3
20260902064534 62 309 0.0 5.0 0.00 0.51 0.00 98 1017.4
20260902064033 62 306 1.0 5.0 0.00 0.51 0.00 98 1017.3
20260902063534 62 88 0.0 4.0 0.00 0.51 0.00 98 1017.3
20260902063041 62 139 0.0 2.0 0.00 0.51 0.00 98 1017.4
20260902062534 63 326 0.0 1.0 0.00 0.51 0.00 98 1017.3
20260902062035 63 326 0.0 2.0 0.00 0.51 0.00 98 1017.5
20260902061530 63 71 0.0 2.0 0.00 0.51 0.00 98 1017.4
20260902061031 63 281 0.0 3.0 0.00 0.51 0.00 98 1017.5
20260902060531 63 321 0.0 5.0 0.00 0.51 0.00 98 1017.5
20260902060029 63 54 1.0 5.0 0.00 0.51 0.00 98 1017.4
20260902055528 63 11 0.0 3.0 0.00 0.51 0.00 98 1017.3
20260902055029 63 56 0.0 3.0 0.00 0.51 0.00 98 1017.3
20260902054534 63 306 0.0 2.0 0.00 0.51 0.00 98 1017.3
20260902054028 63 15 0.0 2.0 0.00 0.51 0.00 98 1017.2
20260902053529 63 294 0.0 2.0 0.00 0.51 0.00 98 1017.2
20260902053028 63 269 0.0 1.0 0.00 0.51 0.00 98 1017.2
20260902052530 63 270 0.0 1.0 0.00 0.51 0.00 98 1017.3
20260902052029 63 270 0.0 2.0 0.00 0.51 0.00 98 1017.2
20260902051524 63 274 0.0 5.0 0.00 0.51 0.00 98 1016.9
20260902051024 63 288 0.0 5.0 0.00 0.51 0.00 98 1016.8
20260902050527 63 64 0.0 4.0 0.00 0.51 0.00 98 1016.7
20260902050051 63 59 0.0 3.0 0.00 0.51 0.00 98 1016.8
20260902045526 64 355 0.0 2.0 0.00 0.51 0.00 98 1016.7
20260902045022 64 297 0.0 3.0 0.00 0.51 0.00 98 1016.7
20260902044522 64 94 0.0 3.0 0.00 0.51 0.00 98 1016.7
20260902044021 64 26 0.0 2.0 0.00 0.51 0.00 98 1016.6
20260902043520 64 27 0.0 4.0 0.00 0.51 0.00 98 1016.5
20260902043029 64 357 0.0 4.0 0.00 0.51 0.00 98 1016.4
20260902042523 64 33 0.0 4.0 0.00 0.51 0.00 98 1016.3
20260902042019 64 79 1.0 4.0 0.00 0.51 0.00 98 1016.3
20260902041516 64 134 0.0 5.0 0.00 0.51 0.00 98 1016.2
20260902041016 64 71 0.0 4.0 0.00 0.51 0.00 98 1016.2
20260902040516 64 88 0.0 1.0 0.00 0.51 0.00 98 1016.2
20260902040019 64 79 0.0 1.0 0.00 0.51 0.00 98 1016.2
20260902035516 64 1 0.0 4.0 0.00 0.51 0.51 98 1016.2
20260902035017 64 60 0.0 4.0 0.00 0.51 0.51 98 1016.1
20260902034521 64 307 0.0 2.0 0.00 0.51 0.51 98 1016.1
20260902034014 64 61 0.0 2.0 0.00 0.51 0.51 98 1016.1
20260902033515 64 299 0.0 2.0 0.00 0.51 0.51 98 1016.1
20260902033014 64 293 0.0 2.0 0.00 0.51 0.51 98 1016.2
20260902032516 64 85 0.0 1.0 0.00 0.51 0.51 98 1016.1
20260902032014 64 84 0.0 1.0 0.00 0.51 0.51 98 1016.0
20260902031514 64 30 0.0 0.0 0.00 0.51 0.51 98 1016.0
20260902031016 64 30 0.0 0.0 0.00 0.51 0.51 98 1015.9
20260902030515 64 30 0.0 1.0 0.00 0.51 0.51 98 1016.0
20260902030013 64 30 0.0 2.0 0.00 0.51 0.51 98 1016.0
20260902025513 64 309 0.0 2.0 0.00 0.51 0.51 98 1016.1
20260902025013 65 297 0.0 3.0 0.01 0.51 0.51 98 1016.1
20260902024513 65 275 0.0 2.0 0.01 0.51 0.51 98 1016.2
20260902024012 65 301 0.0 2.0 0.01 0.51 0.51 98 1016.3
20260902023512 65 83 0.0 2.0 0.01 0.51 0.51 98 1016.4
20260902023012 65 308 0.0 1.0 0.01 0.51 0.51 98 1016.5
20260902022513 65 308 0.0 1.0 0.01 0.51 0.51 98 1016.5
20260902022012 65 308 0.0 1.0 0.01 0.51 0.51 98 1016.5
20260902021511 65 308 0.0 1.0 0.01 0.51 0.51 98 1016.6
20260902021011 65 308 0.0 0.0 0.01 0.51 0.51 98 1016.5
20260902020511 65 307 0.0 0.0 0.01 0.51 0.51 98 1016.4
20260902020011 65 307 0.0 0.0 0.01 0.51 0.51 98 1016.5
20260902015510 65 307 0.0 0.0 0.01 0.51 0.51 98 1016.5
20260902015011 65 307 0.0 0.0 0.00 0.50 0.50 98 1016.5
20260902014511 65 307 0.0 1.0 0.00 0.50 0.50 98 1016.4
20260902014013 65 307 0.0 1.0 0.00 0.50 0.50 98 1016.4
20260902013510 65 309 0.0 1.0 0.00 0.50 0.50 98 1016.4
20260902013010 65 296 0.0 1.0 0.00 0.50 0.50 98 1016.2
20260902012510 65 297 0.0 1.0 0.00 0.50 0.50 98 1016.1
20260902012010 65 58 0.0 1.0 0.00 0.50 0.50 98 1016.1
20260902011509 65 79 0.0 2.0 0.00 0.50 0.50 98 1015.9
20260902011012 65 79 0.0 2.0 0.00 0.50 0.50 98 1016.0
20260902010509 64 83 0.0 0.0 0.00 0.50 0.50 98 1016.0
20260902010011 65 83 0.0 0.0 0.00 0.50 0.50 98 1015.8
20260902005509 65 83 0.0 0.0 0.00 0.50 0.50 98 1015.8
20260902005009 65 84 0.0 0.0 0.00 0.50 0.50 98 1015.7
20260902004512 65 83 0.0 0.0 0.00 0.50 0.50 98 1015.6
20260902004008 65 84 0.0 0.0 0.00 0.50 0.50 98 1015.6
20260902003519 64 83 0.0 1.0 0.00 0.50 0.50 98 1015.5
20260902003027 64 84 0.0 1.0 0.00 0.50 0.50 98 1015.5
20260902002509 65 84 0.0 1.0 0.00 0.50 0.50 98 1015.4
20260902002020 65 84 0.0 1.0 0.00 0.50 0.50 98 1015.3
20260902001520 65 84 0.0 1.0 0.00 0.50 0.50 98 1015.2
20260902001020 65 84 0.0 0.0 0.00 0.50 0.50 98 1015.2
20260902000530 65 83 0.0 0.0 0.00 0.50 0.50 98 1015.2
20260902000014 65 84 0.0 0.0 0.00 0.50 0.50 98 1015.2
20260901235523 65 85 0.0 1.0 0.00 0.50 0.50 98 1015.2
20260901235008 65 84 0.0 2.0 0.00 0.50 0.50 98 1015.1
20260901234518 65 99 0.0 3.0 0.00 0.50 0.50 98 1015.0
20260901234023 65 54 0.0 2.0 0.00 0.50 0.50 98 1015.0
20260901233509 65 94 0.0 2.0 0.00 0.50 0.50 98 1015.1
20260901233013 65 62 0.0 2.0 0.00 0.50 0.50 98 1015.1
20260901232523 65 314 0.0 0.0 0.00 0.50 0.50 98 1015.2
20260901232008 65 314 0.0 0.0 0.00 0.50 0.50 98 1015.1
20260901231525 65 314 0.0 0.0 0.00 0.50 0.50 98 1015.1
20260901231018 65 314 0.0 0.0 0.00 0.50 0.50 98 1015.1
20260901230508 65 314 0.0 0.0 0.00 0.50 0.50 98 1015.1
20260901230013 65 314 0.0 1.0 0.00 0.50 0.50 98 1015.1
20260901225521 65 314 0.0 1.0 0.00 0.50 0.50 98 1015.2
20260901225012 65 315 0.0 1.0 0.00 0.50 0.50 98 1015.1
20260901224525 65 101 0.0 1.0 0.00 0.50 0.50 98 1015.0
20260901224026 65 101 0.0 1.0 0.00 0.50 0.50 98 1015.1
20260901223527 65 101 0.0 5.0 0.00 0.50 0.50 98 1015.3
20260901223014 65 101 0.0 5.0 0.00 0.50 0.50 98 1015.2
20260901222519 65 98 1.0 5.0 0.00 0.50 0.50 98 1015.2
20260901222021 65 53 1.0 6.0 0.00 0.50 0.50 98 1015.1
20260901221526 65 58 0.0 6.0 0.00 0.50 0.50 98 1015.2
20260901221013 65 71 0.0 2.0 0.00 0.50 0.50 98 1015.2
20260901220518 65 70 0.0 4.0 0.00 0.50 0.50 98 1015.3
20260901220025 65 68 0.0 4.0 0.00 0.50 0.50 98 1015.4
20260901215510 65 86 0.0 5.0 0.00 0.50 0.50 98 1015.3
20260901215017 65 106 1.0 5.0 0.00 0.50 0.50 98 1015.2
20260901214529 65 76 0.0 3.0 0.00 0.50 0.50 97 1015.1
20260901214011 65 69 0.0 3.0 0.00 0.50 0.50 98 1015.0
20260901213519 65 79 0.0 3.0 0.00 0.50 0.50 97 1015.0
20260901213038 65 70 0.0 5.0 0.00 0.50 0.50 97 1014.9
20260901212509 65 73 0.0 1.0 0.01 0.50 0.50 97 1014.9
20260901212013 65 68 0.0 1.0 0.01 0.50 0.50 97 1014.9
20260901211519 65 70 0.0 2.0 0.01 0.50 0.50 97 1014.9
20260901211021 65 77 0.0 3.0 0.02 0.50 0.50 97 1014.8
20260901210528 66 72 0.0 3.0 0.02 0.50 0.50 97 1014.8
20260901210011 66 70 0.0 2.0 0.02 0.50 0.50 97 1014.8
20260901205517 66 82 0.0 2.0 0.02 0.50 0.50 97 1014.8
20260901205023 66 86 0.0 2.0 0.02 0.50 0.50 97 1014.8
20260901204511 66 67 0.0 2.0 0.02 0.50 0.50 97 1014.7
20260901204017 66 74 0.0 2.0 0.02 0.50 0.50 97 1014.7
20260901203521 66 70 0.0 2.0 0.02 0.50 0.50 97 1014.7
20260901203033 66 68 0.0 1.0 0.02 0.50 0.50 97 1014.7
20260901202512 66 68 0.0 2.0 0.01 0.49 0.49 97 1014.8
20260901202017 66 68 0.0 2.0 0.01 0.49 0.49 97 1014.7
20260901201527 66 117 0.0 2.0 0.01 0.49 0.49 97 1014.8
20260901201013 66 124 0.0 3.0 0.00 0.48 0.48 97 1014.8
20260901200520 66 60 1.0 4.0 0.00 0.48 0.48 97 1014.8
20260901200023 66 94 0.0 2.0 0.00 0.48 0.48 97 1014.7
20260901195527 66 98 0.0 2.0 0.00 0.48 0.48 97 1014.7
20260901195013 66 60 0.0 3.0 0.00 0.48 0.48 97 1014.8
20260901194521 66 83 1.0 4.0 0.00 0.48 0.48 97 1014.7
20260901194021 66 58 0.0 4.0 0.00 0.48 0.48 97 1014.8
20260901193510 66 69 0.0 5.0 0.01 0.48 0.48 97 1014.8
20260901193016 66 68 0.0 5.0 0.01 0.48 0.48 97 1014.7
20260901192521 66 79 0.0 3.0 0.01 0.48 0.48 97 1014.7
20260901192003 66 58 0.0 3.0 0.01 0.48 0.48 97 1014.7
20260901191512 66 67 0.0 2.0 0.01 0.48 0.48 98 1014.6
20260901191021 66 67 0.0 3.0 0.01 0.48 0.48 98 1014.5
20260901190511 66 65 1.0 3.0 0.01 0.48 0.48 98 1014.4
20260901190014 66 47 1.0 3.0 0.01 0.48 0.48 98 1014.3
20260901185526 66 70 0.0 1.0 0.01 0.48 0.48 98 1014.3
20260901185009 66 83 0.0 0.0 0.01 0.48 0.48 98 1014.3
20260901184532 66 83 0.0 2.0 0.02 0.48 0.48 98 1014.3
20260901184020 66 79 0.0 4.0 0.02 0.48 0.48 98 1014.3
20260901183526 66 68 1.0 4.0 0.01 0.47 0.47 98 1014.4
20260901183013 66 78 0.0 4.0 0.01 0.47 0.47 98 1014.4
20260901182516 66 68 0.0 4.0 0.01 0.47 0.47 98 1014.5
20260901182022 66 93 0.0 4.0 0.01 0.47 0.47 98 1014.4
20260901181546 65 56 0.0 5.0 0.01 0.47 0.47 98 1014.4
20260901181012 65 69 1.0 5.0 0.01 0.47 0.47 98 1014.5
20260901180518 65 82 1.0 5.0 0.02 0.47 0.47 97 1014.4
20260901180022 65 79 1.0 5.0 0.03 0.47 0.47 97 1014.2
20260901175512 65 70 2.0 5.0 0.04 0.47 0.47 97 1014.2
20260901175014 65 78 1.0 4.0 0.05 0.47 0.47 97 1014.3
20260901174545 65 69 1.0 4.0 0.05 0.46 0.46 97 1014.2
20260901174010 65 81 0.0 6.0 0.05 0.46 0.46 97 1014.2
20260901173516 65 90 3.0 7.0 0.05 0.46 0.46 97 1014.1
20260901173019 65 82 3.0 9.0 0.05 0.46 0.46 97 1014.0
20260901172526 65 75 4.0 9.0 0.05 0.46 0.46 97 1013.9
20260901172013 66 78 3.0 6.0 0.05 0.46 0.46 97 1013.9
20260901171524 66 75 1.0 6.0 0.05 0.46 0.46 97 1013.8
20260901171008 66 83 3.0 6.0 0.05 0.46 0.46 97 1013.8
20260901170517 66 71 0.0 3.0 0.04 0.45 0.45 97 1013.9
20260901170016 67 90 1.0 3.0 0.03 0.44 0.44 97 1013.9
20260901165522 66 82 0.0 3.0 0.02 0.43 0.43 97 1013.8
20260901165008 66 102 0.0 5.0 0.01 0.42 0.42 96 1013.7
20260901164516 67 69 2.0 5.0 0.00 0.41 0.41 96 1013.8
20260901164020 67 102 0.0 4.0 0.00 0.41 0.41 96 1013.9
20260901163528 67 86 1.0 3.0 0.00 0.41 0.41 95 1013.9
20260901163011 68 89 0.0 0.0 0.00 0.41 0.41 96 1013.9
20260901162518 68 331 0.0 0.0 0.01 0.41 0.41 96 1013.8
20260901162019 68 332 0.0 0.0 0.01 0.41 0.41 97 1013.8
20260901161530 68 331 0.0 2.0 0.01 0.41 0.41 97 1013.9
20260901161009 67 302 0.0 2.0 0.01 0.41 0.41 98 1013.7
20260901160517 67 288 0.0 1.0 0.01 0.41 0.41 98 1013.7
20260901160035 67 316 0.0 2.0 0.01 0.41 0.41 98 1013.7
20260901155528 67 48 0.0 3.0 0.01 0.41 0.41 98 1013.8
20260901155010 66 308 0.0 3.0 0.01 0.41 0.41 98 1013.9
20260901154516 66 293 0.0 2.0 0.01 0.41 0.41 98 1014.0
20260901154022 66 295 0.0 2.0 0.01 0.41 0.41 98 1014.0
20260901153512 65 339 0.0 3.0 0.01 0.41 0.41 97 1014.1
20260901153016 65 71 0.0 2.0 0.01 0.41 0.41 97 1014.1
20260901152522 65 117 0.0 3.0 0.00 0.40 0.40 97 1014.3
20260901152014 65 93 0.0 3.0 0.01 0.40 0.40 97 1014.4
20260901151527 65 58 0.0 1.0 0.02 0.40 0.40 97 1014.5
20260901151007 65 58 0.0 3.0 0.02 0.40 0.40 97 1014.4
20260901150511 66 56 0.0 3.0 0.02 0.40 0.40 97 1014.4
20260901150025 66 323 0.0 0.0 0.02 0.40 0.40 97 1014.4
20260901145510 66 323 0.0 0.0 0.02 0.40 0.40 97 1014.3
20260901145019 65 323 0.0 0.0 0.02 0.40 0.40 98 1014.2
20260901144521 65 323 0.0 0.0 0.02 0.40 0.40 98 1014.3
20260901144012 65 323 0.0 0.0 0.02 0.40 0.40 97 1014.3
20260901143522 65 323 0.0 0.0 0.02 0.40 0.40 97 1014.3
20260901143006 65 323 0.0 1.0 0.02 0.40 0.40 97 1014.2
20260901142515 65 323 0.0 2.0 0.02 0.40 0.40 97 1014.2
20260901142019 65 281 0.0 2.0 0.01 0.39 0.39 97 1014.4
20260901141507 65 312 0.0 1.0 0.00 0.38 0.38 97 1014.5
20260901141019 65 70 0.0 3.0 0.00 0.38 0.38 97 1014.4
20260901140525 65 69 1.0 3.0 0.00 0.38 0.38 97 1014.3
20260901140010 65 69 0.0 3.0 0.00 0.38 0.38 98 1014.3
20260901135518 65 82 0.0 3.0 0.00 0.38 0.38 98 1014.3
20260901135022 65 84 0.0 4.0 0.00 0.38 0.38 98 1014.3
20260901134515 64 103 1.0 4.0 0.00 0.38 0.38 98 1014.2
20260901134020 64 43 0.0 4.0 0.00 0.38 0.38 98 1014.3
20260901133524 64 77 0.0 4.0 0.00 0.38 0.38 98 1014.4
20260901133011 64 69 0.0 4.0 0.00 0.38 0.38 98 1014.4
20260901132520 65 86 1.0 4.0 0.01 0.38 0.38 98 1014.3
20260901132021 65 67 0.0 0.0 0.01 0.38 0.38 98 1014.5
20260901131514 64 66 0.0 4.0 0.01 0.38 0.38 98 1014.5
20260901131015 64 68 0.0 4.0 0.02 0.38 0.38 98 1014.5
20260901130525 64 85 0.0 3.0 0.02 0.38 0.38 98 1014.5
20260901130010 64 86 0.0 2.0 0.02 0.38 0.38 98 1014.6
20260901125516 64 75 0.0 2.0 0.02 0.38 0.38 98 1014.6
20260901125016 64 54 0.0 1.0 0.02 0.38 0.38 98 1014.7
20260901124531 64 65 0.0 0.0 0.02 0.38 0.38 98 1014.7
20260901124009 64 83 0.0 1.0 0.03 0.38 0.38 98 1014.8
20260901123517 64 84 0.0 2.0 0.04 0.38 0.38 98 1014.8
20260901123033 64 75 0.0 2.0 0.04 0.38 0.38 98 1014.9
20260901122523 64 264 0.0 0.0 0.04 0.37 0.37 98 1014.8
20260901122009 64 264 0.0 0.0 0.06 0.37 0.37 98 1015.2
20260901121041 63 264 0.0 1.0 0.10 0.36 0.36 98 1015.3
20260901120541 63 264 0.0 2.0 0.10 0.36 0.36 98 1015.2
20260901120048 63 280 0.0 2.0 0.10 0.36 0.36 98 1015.2
20260901115540 63 326 0.0 1.0 0.10 0.36 0.36 98 1015.2
20260901115043 64 340 0.0 0.0 0.10 0.36 0.36 98 1015.1
20260901114545 64 40 0.0 0.0 0.12 0.36 0.36 98 1015.2
20260901114039 64 40 0.0 0.0 0.11 0.35 0.35 98 1015.1
20260901113538 63 40 0.0 0.0 0.10 0.34 0.34 97 1015.1
20260901113041 63 40 0.0 1.0 0.10 0.34 0.34 97 1015.0
20260901112538 63 40 0.0 2.0 0.09 0.33 0.33 97 1015.0
20260901112038 63 83 0.0 2.0 0.07 0.31 0.31 97 1014.9
20260901111544 63 79 1.0 2.0 0.05 0.28 0.28 97 1015.0
20260901111037 64 82 0.0 0.0 0.02 0.26 0.26 97 1015.1
20260901110537 64 120 0.0 0.0 0.02 0.26 0.26 97 1015.1
20260901110038 64 120 0.0 0.0 0.02 0.26 0.26 97 1015.0
20260901105536 64 83 0.0 0.0 0.03 0.26 0.26 97 1014.9
20260901105041 64 100 0.0 0.0 0.03 0.26 0.26 97 1014.7
20260901104542 64 100 0.0 0.0 0.02 0.24 0.24 97 1014.6
20260901104036 64 321 0.0 0.0 0.02 0.24 0.24 97 1014.6
20260901103536 64 321 0.0 0.0 0.03 0.24 0.24 97 1014.6
20260901103036 64 321 0.0 0.0 0.03 0.24 0.24 97 1014.7
20260901102536 64 321 0.0 0.0 0.04 0.24 0.24 97 1014.7
20260901102036 64 40 0.0 0.0 0.05 0.24 0.24 97 1014.4
20260901101536 64 40 0.0 0.0 0.07 0.24 0.24 97 1014.4
20260901101035 64 314 0.0 0.0 0.07 0.24 0.24 97 1014.2
20260901100535 64 312 0.0 0.0 0.08 0.24 0.24 97 1014.2
20260901100036 64 312 0.0 0.0 0.08 0.24 0.24 97 1014.3
20260901095534 64 312 0.0 0.0 0.09 0.23 0.23 97 1014.3
20260901095035 64 312 0.0 0.0 0.09 0.23 0.23 97 1014.3
20260901094534 64 312 0.0 0.0 0.08 0.22 0.22 97 1014.2
20260901094033 64 312 0.0 0.0 0.09 0.22 0.22 97 1014.2
20260901093534 64 312 0.0 0.0 0.08 0.21 0.21 97 1014.3
20260901093034 64 290 0.0 0.0 0.08 0.21 0.21 97 1014.3
20260901092533 64 289 0.0 0.0 0.07 0.20 0.20 97 1014.3
20260901092033 64 283 0.0 0.0 0.06 0.18 0.18 97 1014.2
20260901091533 64 283 0.0 0.0 0.05 0.17 0.17 97 1014.2
20260901091032 64 263 0.0 0.0 0.05 0.17 0.17 97 1014.2
20260901090535 64 89 0.0 1.0 0.04 0.16 0.16 97 1014.2
20260901090031 64 335 0.0 0.0 0.05 0.16 0.16 97 1014.3
20260901085530 64 333 0.0 1.0 0.06 0.14 0.14 97 1014.3
20260901085030 64 288 0.0 1.0 0.06 0.14 0.14 97 1014.3
20260901084530 64 5 0.0 1.0 0.05 0.13 0.13 97 1014.2
20260901084031 64 302 0.0 1.0 0.06 0.13 0.13 97 1014.2
20260901083530 64 319 0.0 1.0 0.06 0.13 0.13 97 1014.3
20260901083031 64 6 0.0 1.0 0.12 0.13 0.13 97 1014.3
20260901082528 64 6 0.0 1.0 0.11 0.12 0.12 97 1014.3
20260901082028 64 6 0.0 4.0 0.11 0.12 0.12 97 1014.4
20260901081528 64 100 0.0 4.0 0.11 0.12 0.12 97 1014.3
20260901081027 64 15 0.0 0.0 0.11 0.12 0.12 97 1014.6
20260901080527 64 6 0.0 0.0 0.11 0.12 0.12 96 1014.7
20260901080026 64 6 0.0 0.0 0.11 0.11 0.11 96 1014.7
20260901075526 64 6 0.0 0.0 0.08 0.08 0.08 96 1014.7
20260901075026 64 6 0.0 0.0 0.08 0.08 0.08 96 1014.7
20260901074524 64 3 0.0 0.0 0.08 0.08 0.08 96 1014.8
20260901074025 64 355 0.0 0.0 0.07 0.07 0.07 96 1014.8
20260901073524 64 272 0.0 0.0 0.06 0.06 0.06 96 1014.8
20260901073028 64 273 0.0 0.0 0.01 0.01 0.01 96 1015.0
20260901072522 64 273 0.0 2.0 0.01 0.01 0.01 96 1015.0
20260901072022 64 273 0.0 2.0 0.01 0.01 0.01 96 1015.0
20260901071522 64 316 0.0 0.0 0.01 0.01 0.01 96 1015.0
20260901071022 64 316 0.0 1.0 0.01 0.01 0.01 95 1015.0
20260901070520 64 316 0.0 1.0 0.01 0.01 0.01 95 1015.0
20260901070020 64 302 0.0 0.0 0.00 0.00 0.00 95 1015.1
20260901065521 64 302 0.0 0.0 0.00 0.00 0.00 95 1015.1